カタログに戻る

COSMOS 2251 DEB

運用中LEO
NORAD 34671·DEBRIS·🇷🇺 Russia

打ち上げ Jun 16, 1993 から Plesetsk Cosmodrome

Loading…

次のパス (今後24時間)

TLE

最新Source: Space-Track

元期: Sep 14, 2026, 03:47 UTC

1 34671U 93036XR  26257.15793505  .00004055  00000-0  66675-3 0  9996
2 34671  74.0264 320.6378 0013847 328.1311  60.6661 14.70877054923425

AllMySatでCOSMOS 2251 DEBをリアルタイム追跡

Download on the App Store